Flag for U.S.A. Weather past 2 weeks in Santa Fe, New Mexico, U.S.A.

Now
72 °F

Clear.


Feels Like: 77 °F
Forecast: 56 / 73 °F
Wind: 12 mph from Northwest

Location: Santa Fe County Municipal Airport

Current Time: Sep 2, 2015 at 10:31:32 PM

Latest Report: Sep 2, 2015 at 8:53 PM


Visibility: 10 mi

Pressure: 29.90 "Hg (23.36 "Hg at 2132m altitude)

Humidity: 33%

Dew point: 41 °F

Location of Santa FeLocation

Historic Weather in Santa Fe — Graph

°F

Santa Fe temperature yesterday

Maximum temperature yesterday: 84 °F (at 3:53 PM)
Minimum temperature yesterday: 57 °F (at 4:53 AM)
Average temperature yesterday: 73 °F

Past Weeks' High & Low Weather Summary

 TemperatureHumidityPressure
High90 °F (Aug 20, 3:53 PM)90% (Aug 26, 11:53 PM)30.39 "Hg (Aug 26, 11:53 PM)
Low53 °F (Aug 22, 4:53 AM)8% (Aug 20, 4:53 PM)29.65 "Hg (Aug 19, 1:53 AM)
Average71 °F45%29.94 "Hg
* Reported Aug 18 8:53 PM — Sep 2 8:53 PM, Santa Fe, Weather by CustomWeather, © 2015

Note: Actual official high and low records may vary slightly from our data, if they occured in-between our weather recording intervals... More about our weather records

Advertising

Santa Fe weather history for previous 24 hours

 ConditionsComfort  
Time TempWeatherWind HumidityBarometerVisibility
8:53 PM
Wed, Sep 2
72 °FClear.12 mph33%29.90 "Hg10 mi
7:53 PM71 °FSunny.17 mph39%29.91 "Hg10 mi
6:53 PM73 °FPartly sunny.25 mph38%29.91 "Hg10 mi
5:53 PM81 °FScattered clouds.5 mph25%29.84 "Hg10 mi
4:53 PM83 °FBroken clouds.3 mph23%29.83 "Hg10 mi
3:53 PM85 °FPartly sunny.3 mph22%29.84 "Hg10 mi
2:53 PM85 °FPassing clouds.6 mph22%29.87 "Hg10 mi
1:53 PM83 °FPassing clouds.10 mph24%29.91 "Hg10 mi
12:53 PM81 °FSunny.3 mph25%29.94 "Hg10 mi
11:53 AM82 °FSunny.7 mph24%29.93 "Hg10 mi
10:53 AM78 °FSunny.3 mph29%29.95 "Hg10 mi
9:53 AM75 °FSunny.6 mph33%29.96 "Hg10 mi
8:53 AM69 °FSunny.6 mph41%29.99 "Hg10 mi
7:53 AM62 °FSunny.8 mph54%29.99 "Hg10 mi
6:53 AM56 °FClear.No wind70%29.98 "Hg10 mi
5:53 AM59 °FPassing clouds.5 mph58%29.94 "Hg10 mi
4:53 AM63 °FMostly cloudy.3 mph50%29.92 "Hg10 mi
3:53 AM60 °FOvercast.6 mph56%29.93 "Hg10 mi
2:53 AM61 °FClear.No wind52%29.93 "Hg10 mi
11:53 PM
Tue, Sep 1
68 °FClear.No wind39%29.90 "Hg10 mi
10:53 PM70 °FClear.No wind37%29.90 "Hg10 mi
Weather by CustomWeather, © 2015

See weather overviewHow to use our weather pages